Current weather by "City, St" or "zip code"  
 
Advertise Here

Current Conditions: Pittsburgh - Allegheny County Airport, PA

Partly Cloudy


58.0 F

Last Updated on May 12 2021, 12:53 pm EDT
Humidity: 39%
Wind Speed: N 8.1 G 16.1 mph
Barometer 30.31 in
Dewpoint: 33.1 F
Visibility: 10.00 mi
Precip: --
Heat Index: NA
Wind Chill: 56 F
Current conditions at:

Pittsburgh - Allegheny County Airport, PA (KAGC)

Lat: 40.35521 Lon: 79.92144

Local Radar Image active severe weather and emergency alerts image image weather storm and storm spotter reports image weather observation monitoring service image
Local
Radar
Active
Alerts
Storm Reports Obs
Monitoring

Sign-up For Email & Text Message Weather Alert Notification Services


Advertise Here

Observation History for Pittsburgh - Allegheny County Airport, PA


Time Wind
(mph)
Vis
(mi)
Weather Precip (in) Temperature (F) Relative
Humidity
Wind
Chill
(F)
Heat
Index
(F)
Pressure
Air Dwpt altimeter
(in)
sea level
(mb)
Rmks
12:53 pm EDT N 8.1 G 16.1 10.00 Partly Cloudy -- 58.0 33.1 39% 56 NA 30.31 1027.2
11:53 am EDT NW 6.9 G 23.0 10.00 Mostly Cloudy -- 55.0 36.0 49% 53 NA 30.33 1027.8
10:53 am EDT NW 6.9 10.00 Fair -- 53.0 37.0 55% 51 NA 30.33 1028.0
9:53 am EDT N 4.6 10.00 Fair -- 50.0 36.0 59% 48 NA 30.34 1028.3
8:53 am EDT 3.5 10.00 Fair -- 46.0 35.1 66% NA NA 30.34 1028.5
7:53 am EDT 3.5 10.00 A Few Clouds -- 42.0 35.1 76% NA NA 30.33 1028.2
6:53 am EDT N 0.0 10.00 Overcast -- 41.0 34.0 76% NA NA 30.32 1027.6
5:53 am EDT N 4.6 10.00 Overcast -- 39.0 33.1 79% 36 NA 30.29 1026.5
4:53 am EDT N 5.8 10.00 Fair -- 38.0 30.9 76% 34 NA 30.28 1026.3
3:53 am EDT NW 5.8 10.00 Fair -- 39.0 28.9 67% 35 NA 30.26 1025.7
1:53 am EDT NW 5.8 10.00 Fair -- 41.0 27.0 57% 37 NA 30.27 1025.8
12:53 am EDT NW 6.9 10.00 Fair -- 41.0 26.1 55% 36 NA 30.27 1025.9
11:53 pm EDT NW 4.6 10.00 Fair -- 43.0 25.0 49% 40 NA 30.28 1026.2
10:53 pm EDT NW 5.8 10.00 Fair -- 44.0 25.0 47% 41 NA 30.27 1026.1
9:53 pm EDT NW 6.9 10.00 Fair -- 44.0 24.1 45% 40 NA 30.25 1025.3
8:53 pm EDT NW 9.2 G 17.3 10.00 Fair -- 47.0 24.1 41% 43 NA 30.22 1024.3
7:53 pm EDT NW 11.5 G 19.6 10.00 Fair -- 50.0 26.1 39% 46 NA 30.20 1023.6
6:53 pm EDT N 16.1 G 27.6 10.00 Mostly Cloudy -- 51.0 26.1 38% 46 NA 30.17 1022.3
5:53 pm EDT NW 11.5 G 31.1 10.00 Partly Cloudy -- 54.0 26.1 34% 51 NA 30.15 1021.7
4:53 pm EDT NW 12.7 G 21.9 10.00 Mostly Cloudy -- 54.0 25.0 33% 50 NA 30.13 1021.1
3:53 pm EDT NW 11.5 G 24.2 10.00 Mostly Cloudy -- 55.0 24.1 30% 52 NA 30.13 1020.9
2:53 pm EDT NW 9.2 G 25.3 10.00 Mostly Cloudy -- 53.0 28.0 38% 50 NA 30.14 1021.3
1:53 pm EDT W 10.4 G 19.6 10.00 Mostly Cloudy -- 55.0 32.0 42% 52 NA 30.14 1021.3

Regional Weather Observation


Zelienople Municipal Airport, PA (KPJC)

Mostly Cloudy
57.0 F

Beaver County Airport, PA (KBVI)

Partly Cloudy
60.0 F

Butler, Butler County Airport/K W Scholter Field, PA (KBTP)

Partly Cloudy
57.0 F

Pittsburgh - Allegheny County Airport, PA (KAGC)

Partly Cloudy
58.0 F

Washington - Washington County Airport, PA (KAFJ)

Mostly Cloudy
56.0 F

Wheeling, Wheeling Ohio County Airport, WV (KHLG)

Mostly Cloudy
57.0 F
Advertise Here

Advertise Here